Home   Weather   Ferizaj   Past weeks
Flag for Kosovo

Past Weather in Ferizaj, Kosovo — Yesterday and Last 2 Weeks

Now
66 °F

Clear.


Feels Like: 66 °F
Forecast: 68 / 49 °F
Wind: 2 mph from Southeast

Location: Skopje-Petrovec

Current Time: Sep 22, 2019 at 8:34:37 pm

Latest Report: Sep 22, 2019 at 8:00 pm


Visibility: 10 mi

Pressure: 30.07 "Hg (28.09 "Hg at 582m altitude)

Humidity: 49%

Dew Point: 46 °F

Location of FerizajLocation

Past Weather in Ferizaj — Graph

°F

Ferizaj Temperature Yesterday

Maximum temperature yesterday: 73 °F (at 5:00 pm)
Minimum temperature yesterday: 41 °F (at 4:00 am)
Average temperature yesterday: 57 °F

High & Low Weather Summary for the Past Weeks

 TemperatureHumidityPressure
High91 °F (Sep 17, 3:30 pm)100% (Sep 8, 4:30 am)30.36 "Hg (Sep 8, 4:30 am)
Low39 °F (Sep 22, 4:30 am)13% (Sep 17, 4:30 pm)29.89 "Hg (Sep 17, 4:00 pm)
Average69 °F51%30.14 "Hg
* Reported Sep 7 7:00 pm — Sep 22 7:30 pm, Ferizaj. Weather by CustomWeather, © 2019

Note: Actual official high and low records may vary slightly from our data, if they occured in-between our weather recording intervals... More about our weather records

Advertising

Ferizaj Weather History for the Previous 24 Hours

Scroll right to see more
 ConditionsComfort  
Time TempWeatherWind HumidityBarometerVisibility
7:30 pm
Sun, Sep 22
68 °FClear.3 mph43%30.07 "Hg10 mi
7:00 pm72 °FClear.2 mph36%30.07 "Hg10 mi
6:30 pm73 °FSunny.2 mph33%30.07 "Hg10 mi
6:00 pm77 °FSunny.3 mph30%30.07 "Hg10 mi
5:30 pm77 °FSunny.No wind30%30.07 "Hg10 mi
5:00 pm77 °FSunny.2 mph30%30.07 "Hg10 mi
4:30 pm77 °FSunny.3 mph30%30.07 "Hg10 mi
4:00 pm77 °FSunny.2 mph30%30.07 "Hg10 mi
3:30 pm77 °FSunny.No wind30%30.09 "Hg10 mi
3:00 pm77 °FSunny.1 mph30%30.09 "Hg10 mi
2:30 pm75 °FSunny.2 mph31%30.12 "Hg10 mi
2:00 pm73 °FSunny.3 mph33%30.12 "Hg10 mi
1:30 pm73 °FSunny.No wind33%30.15 "Hg10 mi
1:00 pm73 °FSunny.2 mph36%30.15 "Hg10 mi
12:30 pm72 °FSunny.No wind36%30.18 "Hg10 mi
12:00 pm68 °FSunny.No wind40%30.21 "Hg10 mi
11:30 am66 °FSunny.2 mph43%30.21 "Hg10 mi
11:00 am64 °FSunny.2 mph46%30.21 "Hg10 mi
10:30 am61 °FSunny.No wind45%30.24 "Hg10 mi
10:00 am59 °FSunny.No wind42%30.24 "Hg10 mi
9:30 am57 °FSunny.No wind41%30.27 "Hg10 mi
9:00 am55 °FSunny.No wind47%30.27 "Hg10 mi
8:30 am50 °FSunny.No wind58%30.27 "Hg10 mi
8:00 am46 °FSunny.No wind66%30.27 "Hg10 mi
7:00 am39 °FSunny.No wind81%30.27 "Hg10 mi
6:30 am39 °FSunny.No wind81%30.27 "Hg10 mi
6:00 am39 °FClear.No wind81%30.27 "Hg10 mi
5:30 am41 °FClear.2 mph70%30.27 "Hg10 mi
5:00 am39 °FClear.1 mph75%30.27 "Hg10 mi
4:30 am39 °FClear.No wind75%30.27 "Hg10 mi
4:00 am41 °FClear.1 mph70%30.27 "Hg10 mi
3:30 am41 °FClear.1 mph70%30.27 "Hg10 mi
3:00 am43 °FClear.1 mph66%30.27 "Hg10 mi
1:00 am45 °FClear.1 mph61%30.27 "Hg10 mi
12:00 am45 °FClear.2 mph61%30.27 "Hg10 mi
11:30 pm
Sat, Sep 21
46 °FClear.No wind57%30.27 "Hg10 mi
11:00 pm48 °FClear.No wind58%30.27 "Hg10 mi
10:00 pm50 °FClear.2 mph50%30.27 "Hg10 mi
9:00 pm52 °FClear.2 mph44%30.27 "Hg10 mi
8:30 pm57 °FClear.2 mph36%30.27 "Hg10 mi
8:00 pm57 °FClear.2 mph39%30.24 "Hg10 mi
Weather by CustomWeather, © 2019

See weather overview